Year,Month,Day,Hour,Minute,Value (Times are PST for temperature in C)
2014,08,08,00,00,15.20
2014,08,08,00,01,15.20
2014,08,08,00,02,15.20
2014,08,08,00,03,15.20
2014,08,08,00,04,15.20
2014,08,08,00,05,15.20
2014,08,08,00,06,15.10
2014,08,08,00,07,15.10
2014,08,08,00,08,15.10
2014,08,08,00,09,15.10
2014,08,08,00,10,15.00
2014,08,08,00,11,15.00
2014,08,08,00,12,15.00
2014,08,08,00,13,15.00
2014,08,08,00,14,14.90
2014,08,08,00,15,14.90
2014,08,08,00,16,14.90
2014,08,08,00,17,14.90
2014,08,08,00,18,14.90
2014,08,08,00,19,14.80
2014,08,08,00,20,14.80
2014,08,08,00,21,14.80
2014,08,08,00,22,14.70
2014,08,08,00,23,14.70
2014,08,08,00,24,14.70
2014,08,08,00,25,14.70
2014,08,08,00,26,14.70
2014,08,08,00,27,14.70
2014,08,08,00,28,14.60
2014,08,08,00,29,14.60
2014,08,08,00,30,14.60
2014,08,08,00,31,14.50
2014,08,08,00,32,14.50
2014,08,08,00,33,14.50
2014,08,08,00,34,14.50
2014,08,08,00,35,14.40
2014,08,08,00,36,14.40
2014,08,08,00,37,14.40
2014,08,08,00,38,14.40
2014,08,08,00,39,14.40
2014,08,08,00,40,14.40
2014,08,08,00,41,14.40
2014,08,08,00,42,14.30
2014,08,08,00,43,14.30
2014,08,08,00,44,14.30
2014,08,08,00,45,14.30
2014,08,08,00,46,14.20
2014,08,08,00,47,14.20
2014,08,08,00,48,14.20
2014,08,08,00,49,14.20
2014,08,08,00,50,14.20
2014,08,08,00,51,14.10
2014,08,08,00,52,14.10
2014,08,08,00,53,14.10
2014,08,08,00,54,14.10
2014,08,08,00,55,14.10
2014,08,08,00,56,14.00
2014,08,08,00,57,14.00
2014,08,08,00,58,14.00
2014,08,08,00,59,14.00
2014,08,08,01,00,14.00
2014,08,08,01,01,14.00
2014,08,08,01,02,14.00
2014,08,08,01,03,14.00
2014,08,08,01,04,14.00
2014,08,08,01,05,14.00
2014,08,08,01,06,14.00
2014,08,08,01,07,14.00
2014,08,08,01,08,14.00
2014,08,08,01,09,14.00
2014,08,08,01,10,14.00
2014,08,08,01,11,14.00
2014,08,08,01,12,14.00
2014,08,08,01,13,14.00
2014,08,08,01,14,14.00
2014,08,08,01,15,14.00
2014,08,08,01,16,13.90
2014,08,08,01,17,13.90
2014,08,08,01,18,13.90
2014,08,08,01,19,13.90
2014,08,08,01,20,13.90
2014,08,08,01,21,13.90
2014,08,08,01,22,13.90
2014,08,08,01,23,13.90
2014,08,08,01,24,13.90
2014,08,08,01,25,13.80
2014,08,08,01,26,13.80
2014,08,08,01,27,13.80
2014,08,08,01,28,13.80
2014,08,08,01,29,13.80
2014,08,08,01,30,13.80
2014,08,08,01,31,13.80
2014,08,08,01,32,13.80
2014,08,08,01,33,13.70
2014,08,08,01,34,13.70
2014,08,08,01,35,13.70
2014,08,08,01,36,13.80
2014,08,08,01,37,13.80
2014,08,08,01,38,13.80
2014,08,08,01,39,13.80
2014,08,08,01,40,13.80
2014,08,08,01,41,13.80
2014,08,08,01,42,13.80
2014,08,08,01,43,13.80
2014,08,08,01,44,13.80
2014,08,08,01,45,13.80
2014,08,08,01,46,13.70
2014,08,08,01,47,13.70
2014,08,08,01,48,13.60
2014,08,08,01,49,13.60
2014,08,08,01,50,13.60
2014,08,08,01,51,13.60
2014,08,08,01,52,13.50
2014,08,08,01,53,13.50
2014,08,08,01,54,13.40
2014,08,08,01,55,13.40
2014,08,08,01,56,13.40
2014,08,08,01,57,13.40
2014,08,08,01,58,13.30
2014,08,08,01,59,13.30
2014,08,08,02,00,13.30
2014,08,08,02,01,13.30
2014,08,08,02,02,13.30
2014,08,08,02,03,13.20
2014,08,08,02,04,13.20
2014,08,08,02,05,13.20
2014,08,08,02,06,13.20
2014,08,08,02,07,13.20
2014,08,08,02,08,13.10
2014,08,08,02,09,13.10
2014,08,08,02,10,13.10
2014,08,08,02,11,13.10
2014,08,08,02,12,13.00
2014,08,08,02,13,13.00
2014,08,08,02,14,13.00
2014,08,08,02,15,13.00
2014,08,08,02,16,12.90
2014,08,08,02,17,12.90
2014,08,08,02,18,12.90
2014,08,08,02,19,12.90
2014,08,08,02,20,12.90
2014,08,08,02,21,12.90
2014,08,08,02,22,12.90
2014,08,08,02,23,12.80
2014,08,08,02,24,12.80
2014,08,08,02,25,12.80
2014,08,08,02,26,12.80
2014,08,08,02,27,12.80
2014,08,08,02,28,12.80
2014,08,08,02,29,12.70
2014,08,08,02,30,12.70
2014,08,08,02,31,12.70
2014,08,08,02,32,12.70
2014,08,08,02,33,12.70
2014,08,08,02,34,12.70
2014,08,08,02,35,12.60
2014,08,08,02,36,12.60
2014,08,08,02,37,12.60
2014,08,08,02,38,12.60
2014,08,08,02,39,12.60
2014,08,08,02,40,12.60
2014,08,08,02,41,12.60
2014,08,08,02,42,12.50
2014,08,08,02,43,12.50
2014,08,08,02,44,12.50
2014,08,08,02,45,12.50
2014,08,08,02,46,12.50
2014,08,08,02,47,12.50
2014,08,08,02,48,12.40
2014,08,08,02,49,12.40
2014,08,08,02,50,12.40
2014,08,08,02,51,12.40
2014,08,08,02,52,12.40
2014,08,08,02,53,12.40
2014,08,08,02,54,12.40
2014,08,08,02,55,12.40
2014,08,08,02,56,12.30
2014,08,08,02,57,12.30
2014,08,08,02,58,12.30
2014,08,08,02,59,12.30
2014,08,08,03,00,12.30
2014,08,08,03,01,12.30
2014,08,08,03,02,12.30
2014,08,08,03,03,12.30
2014,08,08,03,04,12.30
2014,08,08,03,05,12.20
2014,08,08,03,06,12.20
2014,08,08,03,07,12.20
2014,08,08,03,08,12.20
2014,08,08,03,09,12.20
2014,08,08,03,10,12.20
2014,08,08,03,11,12.20
2014,08,08,03,12,12.20
2014,08,08,03,13,12.20
2014,08,08,03,14,12.20
2014,08,08,03,15,12.20
2014,08,08,03,16,12.20
2014,08,08,03,17,12.20
2014,08,08,03,18,12.10
2014,08,08,03,19,12.10
2014,08,08,03,20,12.10
2014,08,08,03,21,12.10
2014,08,08,03,22,12.10
2014,08,08,03,23,12.10
2014,08,08,03,24,12.10
2014,08,08,03,25,12.10
2014,08,08,03,26,12.00
2014,08,08,03,27,12.00
2014,08,08,03,28,12.00
2014,08,08,03,29,12.00
2014,08,08,03,30,12.00
2014,08,08,03,31,12.00
2014,08,08,03,32,12.00
2014,08,08,03,33,12.00
2014,08,08,03,34,12.00
2014,08,08,03,35,12.00
2014,08,08,03,36,11.90
2014,08,08,03,37,11.90
2014,08,08,03,38,11.90
2014,08,08,03,39,11.90
2014,08,08,03,40,11.90
2014,08,08,03,41,11.90
2014,08,08,03,42,11.90
2014,08,08,03,43,11.90
2014,08,08,03,44,11.90
2014,08,08,03,45,11.90
2014,08,08,03,46,11.90
2014,08,08,03,47,11.80
2014,08,08,03,48,11.80
2014,08,08,03,49,11.80
2014,08,08,03,50,11.80
2014,08,08,03,51,11.80
2014,08,08,03,52,11.80
2014,08,08,03,53,11.80
2014,08,08,03,54,11.80
2014,08,08,03,55,11.80
2014,08,08,03,56,11.80
2014,08,08,03,57,11.80
2014,08,08,03,58,11.70
2014,08,08,03,59,11.70
2014,08,08,04,00,11.70
2014,08,08,04,01,11.70
2014,08,08,04,02,11.70
2014,08,08,04,03,11.70
2014,08,08,04,04,11.70
2014,08,08,04,05,11.70
2014,08,08,04,06,11.60
2014,08,08,04,07,11.60
2014,08,08,04,08,11.60
2014,08,08,04,09,11.60
2014,08,08,04,10,11.60
2014,08,08,04,11,11.60
2014,08,08,04,12,11.60
2014,08,08,04,13,11.60
2014,08,08,04,14,11.60
2014,08,08,04,15,11.60
2014,08,08,04,16,11.60
2014,08,08,04,17,11.60
2014,08,08,04,18,11.50
2014,08,08,04,19,11.50
2014,08,08,04,20,11.50
2014,08,08,04,21,11.50
2014,08,08,04,22,11.40
2014,08,08,04,23,11.40
2014,08,08,04,24,11.40
2014,08,08,04,25,11.40
2014,08,08,04,26,11.40
2014,08,08,04,27,11.40
2014,08,08,04,28,11.40
2014,08,08,04,29,11.40
2014,08,08,04,30,11.30
2014,08,08,04,31,11.30
2014,08,08,04,32,11.30
2014,08,08,04,33,11.30
2014,08,08,04,34,11.30
2014,08,08,04,35,11.30
2014,08,08,04,36,11.30
2014,08,08,04,37,11.30
2014,08,08,04,38,11.30
2014,08,08,04,39,11.30
2014,08,08,04,40,11.30
2014,08,08,04,41,11.30
2014,08,08,04,42,11.30
2014,08,08,04,43,11.30
2014,08,08,04,44,11.30
2014,08,08,04,45,11.30
2014,08,08,04,46,11.20
2014,08,08,04,47,11.20
2014,08,08,04,48,11.20
2014,08,08,04,49,11.20
2014,08,08,04,50,11.20
2014,08,08,04,51,11.20
2014,08,08,04,52,11.20
2014,08,08,04,53,11.20
2014,08,08,04,54,11.20
2014,08,08,04,55,11.20
2014,08,08,04,56,11.20
2014,08,08,04,57,11.20
2014,08,08,04,58,11.20
2014,08,08,04,59,11.20
2014,08,08,05,00,11.20
2014,08,08,05,01,11.20
2014,08,08,05,02,11.10
2014,08,08,05,03,11.10
2014,08,08,05,04,11.10
2014,08,08,05,05,11.10
2014,08,08,05,06,11.10
2014,08,08,05,07,11.10
2014,08,08,05,08,11.10
2014,08,08,05,09,11.00
2014,08,08,05,10,11.00
2014,08,08,05,11,11.00
2014,08,08,05,12,11.00
2014,08,08,05,13,11.00
2014,08,08,05,14,10.90
2014,08,08,05,15,10.90
2014,08,08,05,16,10.90
2014,08,08,05,17,10.90
2014,08,08,05,18,10.90
2014,08,08,05,19,10.90
2014,08,08,05,20,10.90
2014,08,08,05,21,10.90
2014,08,08,05,22,10.90
2014,08,08,05,23,10.90
2014,08,08,05,24,10.90
2014,08,08,05,25,10.90
2014,08,08,05,26,10.90
2014,08,08,05,27,10.80
2014,08,08,05,28,10.80
2014,08,08,05,29,10.80
2014,08,08,05,30,10.80
2014,08,08,05,31,10.80
2014,08,08,05,32,10.80
2014,08,08,05,33,10.80
2014,08,08,05,34,10.80
2014,08,08,05,35,10.80
2014,08,08,05,36,10.80
2014,08,08,05,37,10.80
2014,08,08,05,38,10.70
2014,08,08,05,39,10.70
2014,08,08,05,40,10.70
2014,08,08,05,41,10.70
2014,08,08,05,42,10.70
2014,08,08,05,43,10.70
2014,08,08,05,44,10.70
2014,08,08,05,45,10.60
2014,08,08,05,46,10.60
2014,08,08,05,47,10.60
2014,08,08,05,48,10.60
2014,08,08,05,49,10.60
2014,08,08,05,50,10.60
2014,08,08,05,51,10.60
2014,08,08,05,52,10.60
2014,08,08,05,53,10.50
2014,08,08,05,54,10.50
2014,08,08,05,55,10.50
2014,08,08,05,56,10.50
2014,08,08,05,57,10.40
2014,08,08,05,58,10.40
2014,08,08,05,59,10.40
2014,08,08,06,00,10.40
2014,08,08,06,01,10.40
2014,08,08,06,02,10.40
2014,08,08,06,03,10.40
2014,08,08,06,04,10.40
2014,08,08,06,05,10.40
2014,08,08,06,06,10.40
2014,08,08,06,07,10.30
2014,08,08,06,08,10.30
2014,08,08,06,09,10.30
2014,08,08,06,10,10.30
2014,08,08,06,11,10.30
2014,08,08,06,12,10.30
2014,08,08,06,13,10.30
2014,08,08,06,14,10.30
2014,08,08,06,15,10.30
2014,08,08,06,16,10.30
2014,08,08,06,17,10.30
2014,08,08,06,18,10.30
2014,08,08,06,19,10.30
2014,08,08,06,20,10.30
2014,08,08,06,21,10.30
2014,08,08,06,22,10.30
2014,08,08,06,23,10.30
2014,08,08,06,24,10.30
2014,08,08,06,25,10.20
2014,08,08,06,26,10.20
2014,08,08,06,27,10.20
2014,08,08,06,28,10.20
2014,08,08,06,29,10.20
2014,08,08,06,30,10.20
2014,08,08,06,31,10.20
2014,08,08,06,32,10.20
2014,08,08,06,33,10.20
2014,08,08,06,34,10.20
2014,08,08,06,35,10.20
2014,08,08,06,36,10.20
2014,08,08,06,37,10.20
2014,08,08,06,38,10.20
2014,08,08,06,39,10.20
2014,08,08,06,40,10.20
2014,08,08,06,41,10.20
2014,08,08,06,42,10.20
2014,08,08,06,43,10.20
2014,08,08,06,44,10.20
2014,08,08,06,45,10.20
2014,08,08,06,46,10.20
2014,08,08,06,47,10.20
2014,08,08,06,48,10.20
2014,08,08,06,49,10.20
2014,08,08,06,50,10.20
2014,08,08,06,51,10.20
2014,08,08,06,52,10.20
2014,08,08,06,53,10.20
2014,08,08,06,54,10.20
2014,08,08,06,55,10.20
2014,08,08,06,56,10.20
2014,08,08,06,57,10.20
2014,08,08,06,58,10.20
2014,08,08,06,59,10.20
2014,08,08,07,00,10.20
2014,08,08,07,01,10.20
2014,08,08,07,02,10.20
2014,08,08,07,03,10.20
2014,08,08,07,04,10.20
2014,08,08,07,05,10.20
2014,08,08,07,06,10.20
2014,08,08,07,07,10.20
2014,08,08,07,08,10.20
2014,08,08,07,09,10.20
2014,08,08,07,10,10.30
2014,08,08,07,11,10.30
2014,08,08,07,12,10.30
2014,08,08,07,13,10.30
2014,08,08,07,14,10.30
2014,08,08,07,15,10.30
2014,08,08,07,16,10.30
2014,08,08,07,17,10.30
2014,08,08,07,18,10.30
2014,08,08,07,19,10.30
2014,08,08,07,20,10.40
2014,08,08,07,21,10.40
2014,08,08,07,22,10.40
2014,08,08,07,23,10.40
2014,08,08,07,24,10.40
2014,08,08,07,25,10.50
2014,08,08,07,26,10.50
2014,08,08,07,27,10.60
2014,08,08,07,28,10.60
2014,08,08,07,29,10.70
2014,08,08,07,30,10.70
2014,08,08,07,31,10.80
2014,08,08,07,32,10.80
2014,08,08,07,33,10.90
2014,08,08,07,34,11.00
2014,08,08,07,35,11.10
2014,08,08,07,36,11.10
2014,08,08,07,37,11.20
2014,08,08,07,38,11.30
2014,08,08,07,39,11.30
2014,08,08,07,40,11.40
2014,08,08,07,41,11.50
2014,08,08,07,42,11.60
2014,08,08,07,43,11.70
2014,08,08,07,44,11.80
2014,08,08,07,45,11.90
2014,08,08,07,46,12.00
2014,08,08,07,47,12.00
2014,08,08,07,48,12.10
2014,08,08,07,49,12.20
2014,08,08,07,50,12.30
2014,08,08,07,51,12.40
2014,08,08,07,52,12.40
2014,08,08,07,53,12.50
2014,08,08,07,54,12.50
2014,08,08,07,55,12.60
2014,08,08,07,56,12.60
2014,08,08,07,57,12.70
2014,08,08,07,58,12.70
2014,08,08,07,59,12.80
2014,08,08,08,00,12.80
2014,08,08,08,01,12.90
2014,08,08,08,02,12.90
2014,08,08,08,03,12.90
2014,08,08,08,04,12.90
2014,08,08,08,05,13.00
2014,08,08,08,06,13.10
2014,08,08,08,07,13.10
2014,08,08,08,08,13.20
2014,08,08,08,09,13.30
2014,08,08,08,10,13.40
2014,08,08,08,11,13.60
2014,08,08,08,12,13.70
2014,08,08,08,13,13.70
2014,08,08,08,14,13.80
2014,08,08,08,15,13.90
2014,08,08,08,16,14.00
2014,08,08,08,17,14.10
2014,08,08,08,18,14.20
2014,08,08,08,19,14.30
2014,08,08,08,20,14.40
2014,08,08,08,21,14.50
2014,08,08,08,22,14.50
2014,08,08,08,23,14.60
2014,08,08,08,24,14.70
2014,08,08,08,25,14.70
2014,08,08,08,26,14.80
2014,08,08,08,27,14.80
2014,08,08,08,28,14.80
2014,08,08,08,29,14.80
2014,08,08,08,30,14.90
2014,08,08,08,31,14.90
2014,08,08,08,32,14.90
2014,08,08,08,33,14.90
2014,08,08,08,34,14.90
2014,08,08,08,35,15.00
2014,08,08,08,36,15.00
2014,08,08,08,37,15.00
2014,08,08,08,38,15.00
2014,08,08,08,39,15.10
2014,08,08,08,40,15.10
2014,08,08,08,41,15.10
2014,08,08,08,42,15.10
2014,08,08,08,43,15.20
2014,08,08,08,44,15.20
2014,08,08,08,45,15.20
2014,08,08,08,46,15.30
2014,08,08,08,47,15.30
2014,08,08,08,48,15.40
2014,08,08,08,49,15.40
2014,08,08,08,50,15.50
2014,08,08,08,51,15.50
2014,08,08,08,52,15.60
2014,08,08,08,53,15.60
2014,08,08,08,54,15.70
2014,08,08,08,55,15.70
2014,08,08,08,56,15.70
2014,08,08,08,57,15.80
2014,08,08,08,58,15.80
2014,08,08,08,59,15.80
2014,08,08,09,00,15.90
2014,08,08,09,01,15.90
2014,08,08,09,02,15.90
2014,08,08,09,03,15.90
2014,08,08,09,04,15.90
2014,08,08,09,05,16.00
2014,08,08,09,06,16.00
2014,08,08,09,07,16.10
2014,08,08,09,08,16.10
2014,08,08,09,09,16.20
2014,08,08,09,10,16.20
2014,08,08,09,11,16.20
2014,08,08,09,12,16.30
2014,08,08,09,13,16.30
2014,08,08,09,14,16.40
2014,08,08,09,15,16.50
2014,08,08,09,16,16.50
2014,08,08,09,17,16.60
2014,08,08,09,18,16.70
2014,08,08,09,19,16.80
2014,08,08,09,20,16.90
2014,08,08,09,21,16.90
2014,08,08,09,22,17.00
2014,08,08,09,23,17.00
2014,08,08,09,24,17.10
2014,08,08,09,25,17.10
2014,08,08,09,26,17.20
2014,08,08,09,27,17.20
2014,08,08,09,28,17.20
2014,08,08,09,29,17.20
2014,08,08,09,30,17.20
2014,08,08,09,31,17.20
2014,08,08,09,32,17.30
2014,08,08,09,33,17.30
2014,08,08,09,34,17.30
2014,08,08,09,35,17.40
2014,08,08,09,36,17.40
2014,08,08,09,37,17.50
2014,08,08,09,38,17.50
2014,08,08,09,39,17.60
2014,08,08,09,40,17.60
2014,08,08,09,41,17.70
2014,08,08,09,42,17.80
2014,08,08,09,43,17.90
2014,08,08,09,44,18.00
2014,08,08,09,45,18.10
2014,08,08,09,46,18.20
2014,08,08,09,47,18.30
2014,08,08,09,48,18.30
2014,08,08,09,49,18.30
2014,08,08,09,50,18.40
2014,08,08,09,51,18.40
2014,08,08,09,52,18.40
2014,08,08,09,53,18.30
2014,08,08,09,54,18.20
2014,08,08,09,55,18.20
2014,08,08,09,56,18.10
2014,08,08,09,57,18.00
2014,08,08,09,58,17.90
2014,08,08,09,59,17.90
2014,08,08,10,00,17.90
2014,08,08,10,01,17.90
2014,08,08,10,02,17.80
2014,08,08,10,03,17.80
2014,08,08,10,04,17.90
2014,08,08,10,05,17.90
2014,08,08,10,06,17.90
2014,08,08,10,07,18.00
2014,08,08,10,08,18.10
2014,08,08,10,09,18.10
2014,08,08,10,10,18.20
2014,08,08,10,11,18.20
2014,08,08,10,12,18.20
2014,08,08,10,13,18.20
2014,08,08,10,14,18.20
2014,08,08,10,15,18.20
2014,08,08,10,16,18.30
2014,08,08,10,17,18.40
2014,08,08,10,18,18.60
2014,08,08,10,19,18.70
2014,08,08,10,20,18.70
2014,08,08,10,21,18.80
2014,08,08,10,22,18.80
2014,08,08,10,23,18.90
2014,08,08,10,24,18.80
2014,08,08,10,25,18.80
2014,08,08,10,26,18.80
2014,08,08,10,27,18.70
2014,08,08,10,28,18.70
2014,08,08,10,29,18.70
2014,08,08,10,30,18.80
2014,08,08,10,31,18.80
2014,08,08,10,32,18.80
2014,08,08,10,33,18.90
2014,08,08,10,34,18.90
2014,08,08,10,35,18.90
2014,08,08,10,36,18.90
2014,08,08,10,37,18.90
2014,08,08,10,38,19.00
2014,08,08,10,39,19.00
2014,08,08,10,40,19.00
2014,08,08,10,41,19.00
2014,08,08,10,42,19.00
2014,08,08,10,43,19.10
2014,08,08,10,44,19.10
2014,08,08,10,45,19.20
2014,08,08,10,46,19.20
2014,08,08,10,47,19.30
2014,08,08,10,48,19.30
2014,08,08,10,49,19.40
2014,08,08,10,50,19.40
2014,08,08,10,51,19.40
2014,08,08,10,52,19.50
2014,08,08,10,53,19.50
2014,08,08,10,54,19.50
2014,08,08,10,55,19.60
2014,08,08,10,56,19.60
2014,08,08,10,57,19.60
2014,08,08,10,58,19.70
2014,08,08,10,59,19.70
2014,08,08,11,00,19.80
2014,08,08,11,01,19.80
2014,08,08,11,02,19.80
2014,08,08,11,03,19.90
2014,08,08,11,04,19.90
2014,08,08,11,05,19.90
2014,08,08,11,06,19.90
2014,08,08,11,07,19.90
2014,08,08,11,08,19.90
2014,08,08,11,09,19.90
2014,08,08,11,10,20.00
2014,08,08,11,11,20.00
2014,08,08,11,12,20.10
2014,08,08,11,13,20.20
2014,08,08,11,14,20.30
2014,08,08,11,15,20.50
2014,08,08,11,16,20.50
2014,08,08,11,17,20.60
2014,08,08,11,18,20.60
2014,08,08,11,19,20.70
2014,08,08,11,20,20.70
2014,08,08,11,21,20.70
2014,08,08,11,22,20.80
2014,08,08,11,23,20.80
2014,08,08,11,24,20.80
2014,08,08,11,25,20.80
2014,08,08,11,26,20.90
2014,08,08,11,27,21.00
2014,08,08,11,28,21.00
2014,08,08,11,29,21.10
2014,08,08,11,30,21.10
2014,08,08,11,31,21.20
2014,08,08,11,32,21.30
2014,08,08,11,33,21.30
2014,08,08,11,34,21.40
2014,08,08,11,35,21.50
2014,08,08,11,36,21.70
2014,08,08,11,37,21.80
2014,08,08,11,38,21.80
2014,08,08,11,39,21.90
2014,08,08,11,40,21.90
2014,08,08,11,41,21.90
2014,08,08,11,42,21.80
2014,08,08,11,43,21.80
2014,08,08,11,44,21.80
2014,08,08,11,45,21.90
2014,08,08,11,46,21.90
2014,08,08,11,47,22.00
2014,08,08,11,48,22.10
2014,08,08,11,49,22.20
2014,08,08,11,50,22.30
2014,08,08,11,51,22.50
2014,08,08,11,52,22.60
2014,08,08,11,53,22.60
2014,08,08,11,54,22.60
2014,08,08,11,55,22.60
2014,08,08,11,56,22.60
2014,08,08,11,57,22.60
2014,08,08,11,58,22.60
2014,08,08,11,59,22.50
2014,08,08,12,00,22.50
2014,08,08,12,01,22.40
2014,08,08,12,02,22.40
2014,08,08,12,03,22.30
2014,08,08,12,04,22.30
2014,08,08,12,05,22.40
2014,08,08,12,06,22.40
2014,08,08,12,07,22.40
2014,08,08,12,08,22.40
2014,08,08,12,09,22.40
2014,08,08,12,10,22.30
2014,08,08,12,11,22.30
2014,08,08,12,12,22.30
2014,08,08,12,13,22.20
2014,08,08,12,14,22.30
2014,08,08,12,15,22.30
2014,08,08,12,16,22.20
2014,08,08,12,17,22.20
2014,08,08,12,18,22.20
2014,08,08,12,19,22.20
2014,08,08,12,20,22.20
2014,08,08,12,21,22.20
2014,08,08,12,22,22.20
2014,08,08,12,23,22.20
2014,08,08,12,24,22.30
2014,08,08,12,25,22.40
2014,08,08,12,26,22.50
2014,08,08,12,27,22.60
2014,08,08,12,28,22.70
2014,08,08,12,29,22.80
2014,08,08,12,30,22.80
2014,08,08,12,31,22.90
2014,08,08,12,32,22.90
2014,08,08,12,33,23.00
2014,08,08,12,34,23.00
2014,08,08,12,35,23.10
2014,08,08,12,36,23.10
2014,08,08,12,37,23.00
2014,08,08,12,38,23.00
2014,08,08,12,39,23.00
2014,08,08,12,40,22.90
2014,08,08,12,41,23.00
2014,08,08,12,42,23.00
2014,08,08,12,43,23.10
2014,08,08,12,44,23.10
2014,08,08,12,45,23.20
2014,08,08,12,46,23.20
2014,08,08,12,47,23.30
2014,08,08,12,48,23.30
2014,08,08,12,49,23.30
2014,08,08,12,50,23.30
2014,08,08,12,51,23.30
2014,08,08,12,52,23.20
2014,08,08,12,53,23.30
2014,08,08,12,54,23.30
2014,08,08,12,55,23.30
2014,08,08,12,56,23.30
2014,08,08,12,57,23.40
2014,08,08,12,58,23.50
2014,08,08,12,59,23.70
2014,08,08,13,00,23.80
2014,08,08,13,01,23.90
2014,08,08,13,02,23.90
2014,08,08,13,03,23.90
2014,08,08,13,04,24.00
2014,08,08,13,05,24.00
2014,08,08,13,06,24.10
2014,08,08,13,07,24.10
2014,08,08,13,08,24.10
2014,08,08,13,09,24.10
2014,08,08,13,10,24.10
2014,08,08,13,11,24.10
2014,08,08,13,12,24.10
2014,08,08,13,13,24.10
2014,08,08,13,14,24.10
2014,08,08,13,15,24.00
2014,08,08,13,16,24.00
2014,08,08,13,17,24.00
2014,08,08,13,18,24.00
2014,08,08,13,19,24.10
2014,08,08,13,20,24.10
2014,08,08,13,21,24.10
2014,08,08,13,22,24.10
2014,08,08,13,23,24.10
2014,08,08,13,24,24.10
2014,08,08,13,25,24.10
2014,08,08,13,26,24.00
2014,08,08,13,27,24.00
2014,08,08,13,28,23.90
2014,08,08,13,29,23.90
2014,08,08,13,30,23.90
2014,08,08,13,31,23.90
2014,08,08,13,32,24.00
2014,08,08,13,33,24.10
2014,08,08,13,34,24.10
2014,08,08,13,35,24.00
2014,08,08,13,36,24.00
2014,08,08,13,37,24.00
2014,08,08,13,38,24.10
2014,08,08,13,39,24.10
2014,08,08,13,40,24.20
2014,08,08,13,41,24.10
2014,08,08,13,42,24.10
2014,08,08,13,43,24.20
2014,08,08,13,44,24.20
2014,08,08,13,45,24.20
2014,08,08,13,46,24.30
2014,08,08,13,47,24.30
2014,08,08,13,48,24.30
2014,08,08,13,49,24.30
2014,08,08,13,50,24.30
2014,08,08,13,51,24.30
2014,08,08,13,52,24.30
2014,08,08,13,53,24.30
2014,08,08,13,54,24.40
2014,08,08,13,55,24.50
2014,08,08,13,56,24.60
2014,08,08,13,57,24.70
2014,08,08,13,58,24.60
2014,08,08,13,59,24.60
2014,08,08,14,00,24.60
2014,08,08,14,01,24.60
2014,08,08,14,02,24.60
2014,08,08,14,03,24.50
2014,08,08,14,04,24.40
2014,08,08,14,05,24.40
2014,08,08,14,06,24.40
2014,08,08,14,07,24.30
2014,08,08,14,08,24.30
2014,08,08,14,09,24.30
2014,08,08,14,10,24.40
2014,08,08,14,11,24.50
2014,08,08,14,12,24.50
2014,08,08,14,13,24.60
2014,08,08,14,14,24.80
2014,08,08,14,15,24.90
2014,08,08,14,16,24.90
2014,08,08,14,17,24.90
2014,08,08,14,18,24.80
2014,08,08,14,19,24.80
2014,08,08,14,20,24.80
2014,08,08,14,21,24.80
2014,08,08,14,22,24.80
2014,08,08,14,23,24.80
2014,08,08,14,24,24.80
2014,08,08,14,25,24.80
2014,08,08,14,26,24.70
2014,08,08,14,27,24.70
2014,08,08,14,28,24.80
2014,08,08,14,29,24.80
2014,08,08,14,30,24.80
2014,08,08,14,31,24.80
2014,08,08,14,32,24.80
2014,08,08,14,33,24.80
2014,08,08,14,34,24.80
2014,08,08,14,35,24.80
2014,08,08,14,36,24.80
2014,08,08,14,37,24.80
2014,08,08,14,38,24.80
2014,08,08,14,39,24.80
2014,08,08,14,40,24.80
2014,08,08,14,41,24.70
2014,08,08,14,42,24.70
2014,08,08,14,43,24.80
2014,08,08,14,44,24.80
2014,08,08,14,45,24.80
2014,08,08,14,46,24.90
2014,08,08,14,47,24.90
2014,08,08,14,48,24.90
2014,08,08,14,49,25.00
2014,08,08,14,50,25.10
2014,08,08,14,51,25.10
2014,08,08,14,52,25.20
2014,08,08,14,53,25.20
2014,08,08,14,54,25.20
2014,08,08,14,55,25.10
2014,08,08,14,56,25.00
2014,08,08,14,57,25.00
2014,08,08,14,58,25.00
2014,08,08,14,59,25.00
2014,08,08,15,00,25.00
2014,08,08,15,01,25.00
2014,08,08,15,02,25.00
2014,08,08,15,03,24.90
2014,08,08,15,04,25.00
2014,08,08,15,05,25.10
2014,08,08,15,06,25.30
2014,08,08,15,07,25.40
2014,08,08,15,08,25.40
2014,08,08,15,09,25.30
2014,08,08,15,10,25.20
2014,08,08,15,11,25.10
2014,08,08,15,12,25.10
2014,08,08,15,13,25.10
2014,08,08,15,14,25.10
2014,08,08,15,15,25.10
2014,08,08,15,16,25.00
2014,08,08,15,17,25.00
2014,08,08,15,18,25.00
2014,08,08,15,19,24.90
2014,08,08,15,20,24.90
2014,08,08,15,21,24.90
2014,08,08,15,22,24.90
2014,08,08,15,23,25.00
2014,08,08,15,24,25.00
2014,08,08,15,25,25.10
2014,08,08,15,26,25.10
2014,08,08,15,27,25.00
2014,08,08,15,28,25.00
2014,08,08,15,29,24.90
2014,08,08,15,30,24.90
2014,08,08,15,31,25.00
2014,08,08,15,32,25.10
2014,08,08,15,33,25.20
2014,08,08,15,34,25.20
2014,08,08,15,35,25.20
2014,08,08,15,36,25.20
2014,08,08,15,37,25.10
2014,08,08,15,38,25.00
2014,08,08,15,39,25.00
2014,08,08,15,40,25.00
2014,08,08,15,41,25.00
2014,08,08,15,42,25.10
2014,08,08,15,43,25.10
2014,08,08,15,44,25.10
2014,08,08,15,45,25.00
2014,08,08,15,46,24.90
2014,08,08,15,47,24.90
2014,08,08,15,48,24.90
2014,08,08,15,49,24.90
2014,08,08,15,50,24.90
2014,08,08,15,51,25.00
2014,08,08,15,52,25.10
2014,08,08,15,53,25.10
2014,08,08,15,54,25.10
2014,08,08,15,55,25.20
2014,08,08,15,56,25.20
2014,08,08,15,57,25.20
2014,08,08,15,58,25.20
2014,08,08,15,59,25.20
2014,08,08,16,00,25.10
2014,08,08,16,01,25.10
2014,08,08,16,02,25.00
2014,08,08,16,03,24.90
2014,08,08,16,04,24.80
2014,08,08,16,05,24.80
2014,08,08,16,06,24.90
2014,08,08,16,07,24.90
2014,08,08,16,08,24.90
2014,08,08,16,09,24.90
2014,08,08,16,10,24.80
2014,08,08,16,11,24.80
2014,08,08,16,12,24.90
2014,08,08,16,13,25.00
2014,08,08,16,14,25.00
2014,08,08,16,15,25.10
2014,08,08,16,16,25.10
2014,08,08,16,17,25.10
2014,08,08,16,18,25.10
2014,08,08,16,19,25.10
2014,08,08,16,20,25.20
2014,08,08,16,21,25.10
2014,08,08,16,22,25.10
2014,08,08,16,23,25.10
2014,08,08,16,24,25.20
2014,08,08,16,25,25.30
2014,08,08,16,26,25.30
2014,08,08,16,27,25.20
2014,08,08,16,28,25.20
2014,08,08,16,29,25.20
2014,08,08,16,30,25.20
2014,08,08,16,31,25.10
2014,08,08,16,32,25.00
2014,08,08,16,33,25.00
2014,08,08,16,34,24.90
2014,08,08,16,35,24.90
2014,08,08,16,36,25.00
2014,08,08,16,37,25.00
2014,08,08,16,38,25.10
2014,08,08,16,39,25.10
2014,08,08,16,40,25.10
2014,08,08,16,41,25.10
2014,08,08,16,42,25.20
2014,08,08,16,43,25.20
2014,08,08,16,44,25.30
2014,08,08,16,45,25.30
2014,08,08,16,46,25.30
2014,08,08,16,47,25.30
2014,08,08,16,48,25.30
2014,08,08,16,49,25.30
2014,08,08,16,50,25.30
2014,08,08,16,51,25.20
2014,08,08,16,52,25.10
2014,08,08,16,53,25.10
2014,08,08,16,54,25.00
2014,08,08,16,55,25.00
2014,08,08,16,56,24.90
2014,08,08,16,57,24.90
2014,08,08,16,58,24.90
2014,08,08,16,59,24.90
2014,08,08,17,00,24.90
2014,08,08,17,01,24.90
2014,08,08,17,02,24.90
2014,08,08,17,03,24.90
2014,08,08,17,04,24.80
2014,08,08,17,05,24.80
2014,08,08,17,06,24.90
2014,08,08,17,07,24.90
2014,08,08,17,08,24.90
2014,08,08,17,09,25.00
2014,08,08,17,10,25.10
2014,08,08,17,11,25.10
2014,08,08,17,12,25.10
2014,08,08,17,13,25.10
2014,08,08,17,14,25.20
2014,08,08,17,15,25.20
2014,08,08,17,16,25.20
2014,08,08,17,17,25.20
2014,08,08,17,18,25.10
2014,08,08,17,19,25.00